Redwood Falls, MN

11:35 PM CDT on July 25, 2017 (GMT -0500)
Redwood Falls Municipal

Weather History for KRWF - October, 2011

Change the Weather History Date:

Wednesday, October 5, 2011

  Actual Average Record
Temperature  
Mean Temperature 73 °F -  
Max Temperature 89 °F 63 °F 92 °F (1947)
Min Temperature 57 °F 41 °F 22 °F (1952)
Cooling Degree Days 8    
Growing Degree Days 23 (Base 50)    
Moisture  
Dew Point 43 °F    
Average Humidity 38    
Maximum Humidity 65    
Minimum Humidity 19    
Precipitation  
Precipitation 0.00 in - - ()
Sea Level Pressure  
Sea Level Pressure 29.98 in    
Wind  
Wind Speed 11 mph (SSE)    
Max Wind Speed 21 mph    
Max Gust Speed 29 mph    
Visibility 10 miles    
Events      
Averages and records for this station are not official NWS values.
T = Trace of Precipitation, MM = Missing Value Source: NWS Daily Summary

Daily Weather History Graph

Daily Weather History Graph

Search for Another Location

Airport or City:

Trip Planner

Search our weather history database for the weather conditions in past years. The results will help you decide how hot, cold, wet, or windy it might be!

Date:

Astronomy

Oct. 05, 2011 Rise Set
Actual Time 7:22 AM CDT 6:54 PM CDT
Civil Twilight 6:53 AM CDT 7:23 PM CDT
Nautical Twilight 6:19 AM CDT 7:56 PM CDT
Astronomical Twilight 5:45 AM CDT 8:30 PM CDT
Moon 3:47 PM CDT (10/5) 12:55 AM CDT (10/5)
Length of Visible Light 12h 29m
Length of Day
11h 31m
Waxing Gibbous, 66% of the Moon is Illuminated
Oct 5
Waxing Gibbous
Oct 11
Full
Oct 19
Last Quarter
Oct 26
New
Nov 2
First Quarter

Hourly Weather History & Observations

Time (CDT) Temp. Dew Point Humidity Pressure Visibility Wind Dir Wind Speed Gust Speed Precip Events Conditions
12:53 AM 64.9 °F 45.0 °F 48% 29.97 in 10.0 mi SSE 8.1 mph - N/A   Clear
2:53 AM 66.9 °F 46.9 °F 49% 29.98 in 10.0 mi South 5.8 mph - N/A   Clear
3:53 AM 62.1 °F 46.9 °F 58% 29.98 in 10.0 mi SE 8.1 mph - N/A   Clear
4:53 AM 60.1 °F 46.9 °F 62% 29.99 in 10.0 mi SSE 6.9 mph - N/A   Clear
6:53 AM 57.9 °F 46.0 °F 65% 30.00 in 10.0 mi SE 10.4 mph - N/A   Clear
7:53 AM 61.0 °F 46.0 °F 58% 30.00 in 10.0 mi South 10.4 mph - N/A   Clear
9:53 AM 71.1 °F 46.0 °F 41% 30.03 in 10.0 mi South 11.5 mph - N/A   Clear
10:53 AM 78.1 °F 45.0 °F 31% 30.02 in 10.0 mi South 12.7 mph - N/A   Clear
11:53 AM 82.0 °F 44.1 °F 26% 30.02 in 10.0 mi South 12.7 mph - N/A   Clear
12:53 PM 87.1 °F 43.0 °F 21% 30.00 in 10.0 mi SSE 12.7 mph - N/A   Clear
2:53 PM 89.1 °F 42.1 °F 19% 29.96 in 10.0 mi South 20.7 mph 26.5 mph N/A   Clear
3:53 PM 88.0 °F 41.0 °F 19% 29.94 in 10.0 mi South 16.1 mph 28.8 mph N/A   Clear
4:53 PM 86.0 °F 39.0 °F 19% 29.94 in 10.0 mi SSE 20.7 mph 28.8 mph N/A   Clear
6:53 PM 78.1 °F 39.9 °F 25% 29.94 in 10.0 mi SSE 13.8 mph - N/A   Clear
7:53 PM 72.0 °F 39.9 °F 31% 29.95 in 10.0 mi SE 11.5 mph - N/A   Clear
8:53 PM 70.0 °F 39.9 °F 33% 29.97 in 10.0 mi SE 13.8 mph - N/A   Clear
9:53 PM 70.0 °F 39.9 °F 33% 29.97 in 10.0 mi SSE 16.1 mph - N/A   Clear
10:53 PM 66.9 °F 39.9 °F 37% 29.98 in 10.0 mi SSE 13.8 mph - N/A   Clear
11:53 PM 63.0 °F 39.9 °F 43% 29.98 in 10.0 mi SE 11.5 mph - N/A   Clear